Stations météo

réclame
Mon MeteoGroup
Garmisch-Partenkirchen, Allemagne (10963): Température de l'air & dewpoint: 17.09.2018 04:00:00 - 23.09.2018 04:00:00 (CEST)Garmisch-Partenkirchen, Allemagne (10963): Température de l'air 5cm & Température de l'air -5cm: 17.09.2018 04:00:00 - 23.09.2018 04:00:00 (CEST)Garmisch-Partenkirchen, Allemagne (10963): Température de l'air -20cm & Température de l'air -100cm: 17.09.2018 04:00:00 - 23.09.2018 04:00:00 (CEST)Garmisch-Partenkirchen, Allemagne (10963): Vitesse du vent & gusts: 17.09.2018 04:00:00 - 23.09.2018 04:00:00 (CEST)Garmisch-Partenkirchen, Allemagne (10963): Direction du vent: 17.09.2018 04:00:00 - 23.09.2018 04:00:00 (CEST)Garmisch-Partenkirchen, Allemagne (10963): reduced air pressure: 17.09.2018 04:00:00 - 23.09.2018 04:00:00 (CEST)Garmisch-Partenkirchen, Allemagne (10963): visibility: 17.09.2018 04:00:00 - 23.09.2018 04:00:00 (CEST)Garmisch-Partenkirchen, Allemagne (10963): Ensoleillement: 17.09.2018 04:00:00 - 23.09.2018 04:00:00 (CEST)Garmisch-Partenkirchen, Allemagne (10963): Quantités de précipitations: 17.09.2018 04:00:00 - 23.09.2018 04:00:00 (CEST)
Date & Time tt [°C] td [°C] tt 5cm [°C] tt -5cm [°C] tt -20cm [°C] tt -100cm [°C] ff [km/h] ff [knt] fx [km/h] fx [knt] dd ppp [hPa] vv [km] sd [min] rr [mm]
23.09.2018 04:00:00 11,3 10,7 11,4 14,5 16,4 17,2 0 0 5 3 N 1021,1 7 0 0,8
23.09.2018 03:00:00 11,4 10,9 11,4 14,7 16,5 17,2 0 0 5 3 N 1021,4 8 0 0,1
23.09.2018 02:00:00 11,3 10,7 11,3 14,8 16,7 17,2 4 2 7 4 WSW 1021,6 46 0 0,2
23.09.2018 01:00:00 11,3 10,8 11,3 15,0 16,9 17,2 3 1 8 4 ESE 1021,9 14 0 0,1
23.09.2018 00:00:00 11,3 10,8 11,3 15,2 17,1 17,2 4 2 8 4 WSW 1021,4 23 0 0,3
22.09.2018 23:00:00 11,2 10,7 11,5 15,5 17,4 17,2 2 1 7 4 SW 1022,4 19 0 0,0
22.09.2018 22:00:00 11,2 10,4 11,1 15,9 17,7 17,2 4 2 7 4 SSW 1022,1 53 0 0,3
22.09.2018 21:00:00 11,7 10,4 11,7 16,4 17,9 17,2 2 1 6 4 W 1022,1 31 0 0,1
22.09.2018 20:00:00 12,1 9,9 12,4 17,1 18,2 17,2 3 1 8 5 SW 1021,0 63 0 0,0
22.09.2018 19:00:00 13,4 8,6 13,4 17,9 18,4 17,2 4 2 13 7 SSE 1020,8 73 11 0,0
22.09.2018 18:00:00 14,5 7,8 14,8 19,1 18,4 17,2 6 4 12 6 ENE 1020,5 74 18 0,0
22.09.2018 17:00:00 14,9 7,9 16,4 20,1 18,2 17,2 6 3 14 7 NE 1020,7 75 3 0,0
22.09.2018 16:00:00 14,8 7,2 17,3 21,3 17,8 17,2 7 4 19 10 NE 1021,0 72 57 0,0
22.09.2018 15:00:00 15,3 7,7 20,8 20,6 17,3 17,2 9 5 16 9 NE 1021,8 72 49 0,0
22.09.2018 14:00:00 14,5 7,3 15,7 19,1 16,9 17,2 3 2 12 7 NNE 1022,3 69 2 0,0
22.09.2018 13:00:00 13,4 7,0 14,7 18,4 16,5 17,2 4 2 9 5 SW 1023,3 75 20 0,0
22.09.2018 12:00:00 12,6 7,0 13,0 16,6 16,3 17,2 3 2 11 6 E 1024,2 63 0 0,0
22.09.2018 11:00:00 11,4 8,2 12,1 15,6 16,2 17,2 4 2 7 4 NNE 1024,9 65 0 0,0
22.09.2018 10:00:00 10,5 8,4 10,6 14,6 16,2 17,2 3 2 9 5 S 1025,1 73 0 0,0
22.09.2018 09:00:00 9,6 8,3 9,9 14,1 16,4 17,1 4 2 6 3 SW 1025,4 65 0 0,0
22.09.2018 08:00:00 9,0 8,2 9,1 13,9 16,6 17,1 3 2 6 4 WNW 1025,7 65 0 0,0
22.09.2018 07:00:00 8,9 8,0 9,0 14,1 16,9 17,1 0 0 6 3 N 1025,4 69 0 0,2
22.09.2018 06:00:00 8,8 8,0 8,9 14,3 17,2 17,1 2 1 5 3 W 1025,1 4,5 0 0,7
22.09.2018 05:00:00 9,1 8,4 9,2 14,7 17,5 17,1 3 1 10 5 W 1025,3 4,5 0 0,4
22.09.2018 04:00:00 9,5 8,9 9,7 15,0 17,8 17,2 5 3 9 5 WSW 1024,4 8 0 0,2
22.09.2018 03:00:00 9,7 7,6 9,3 15,3 18,2 17,2 5 3 16 9 E 1023,8 9 0 0,2
22.09.2018 02:00:00 10,0 8,8 10,1 15,6 18,6 17,2 4 2 22 12 SE 1023,1 9 0 1,0
22.09.2018 01:00:00 10,6 9,3 10,4 16,1 19,2 17,2 12 7 37 20 NE 1022,5 4,5 0 2,6
22.09.2018 00:00:00 12,1 11,1 11,9 17,4 19,7 17,2 15 8 40 22 NE 1019,8 8 0 4,2
21.09.2018 23:00:00 14,8 13,8 14,6 19,1 20,1 17,2 16 8 37 20 NE 1017,5 12 0 3,3
21.09.2018 22:00:00 17,2 15,2 16,2 20,0 20,4 17,2 6 3 15 8 SSW 1014,7 3,4 0 0,3
21.09.2018 21:00:00 19,1 14,4 17,9 20,6 20,6 17,2 3 2 11 6 WSW 1012,8 60 0 0,0
21.09.2018 20:00:00 19,2 15,1 18,1 21,4 20,9 17,2 6 3 11 6 WSW 1012,0 53 0 0,0
21.09.2018 19:00:00 20,7 14,5 19,6 22,7 21,0 17,2 5 3 12 7 ESE 1010,4 67 0 0,0
21.09.2018 18:00:00 22,5 14,6 21,8 24,1 20,9 17,2 5 3 11 6 WSW 1009,3 57 6 0,0
21.09.2018 17:00:00 24,5 12,4 24,2 25,2 20,6 17,2 4 2 18 10 ESE 1009,3 75 0 0,0
21.09.2018 16:00:00 26,4 9,4 27,5 26,9 19,9 17,2 9 5 18 10 NE 1009,3 75 50 0,0
21.09.2018 15:00:00 26,7 9,0 29,2 26,9 19,0 17,2 5 3 12 7 NE 1009,6 69 60 0,0
21.09.2018 14:00:00 27,2 11,0 30,7 25,2 18,0 17,2 5 3 11 6 ESE 1010,2 67 59 0,0
21.09.2018 13:00:00 25,9 10,5 30,0 23,4 16,9 17,2 4 2 9 5 ENE 1011,2 54 60 0,0
21.09.2018 12:00:00 24,2 10,8 25,9 20,6 16,1 17,2 4 2 9 5 S 1012,2 50 60 0,0
21.09.2018 11:00:00 22,4 12,0 23,5 17,3 15,7 17,2 5 3 7 4 SSE 1013,2 39 60 0,0
21.09.2018 10:00:00 19,6 13,2 16,0 13,7 15,7 17,2 3 1 6 3 SSE 1014,3 64 60 0,0
21.09.2018 09:00:00 13,7 12,3 11,8 12,9 15,9 17,2 4 2 6 4 S 1016,2 43 60 0,0
21.09.2018 08:00:00 9,7 9,5 9,1 12,6 16,2 17,2 2 1 5 3 W 1017,6 26 26 0,0
21.09.2018 07:00:00 9,3 9,0 8,5 12,9 16,5 17,2 2 1 6 4 WNW 1017,6 24 0 0,0
21.09.2018 06:00:00 9,5 9,2 8,4 13,3 16,8 17,2 3 2 5 3 SW 1017,8 18 0 0,0
21.09.2018 05:00:00 9,8 9,5 8,8 13,7 17,2 17,2 2 1 5 3 SSE 1017,7 16 0 0,0
21.09.2018 04:00:00 10,3 10,0 9,2 14,2 17,6 17,2 3 2 6 3 WSW 1018,0 22 0 0,0
21.09.2018 03:00:00 10,6 10,3 9,6 14,7 18,0 17,2 3 2 5 3 WSW 1018,2 18 0 0,0
21.09.2018 02:00:00 11,1 10,7 10,0 15,3 18,4 17,2 2 1 4 2 WSW 1018,3 33 0 0,0
21.09.2018 01:00:00 12,0 11,6 10,3 16,0 18,8 17,2 2 1 5 3 W 1018,4 29 0 0,0
21.09.2018 00:00:00 12,2 11,8 11,5 16,7 19,3 17,2 3 2 8 5 SSW 1018,6 23 0 0,0
20.09.2018 23:00:00 13,2 12,6 12,2 17,5 19,7 17,2 3 2 6 4 WSW 1019,0 33 0 0,0
20.09.2018 22:00:00 13,8 12,9 12,7 18,4 20,2 17,2 2 1 9 5 SSW 1019,0 42 0 0,0
20.09.2018 21:00:00 15,0 13,7 13,8 19,6 20,6 17,2 4 2 7 4 SW 1018,5 41 0 0,0
20.09.2018 20:00:00 17,3 14,4 15,3 21,0 21,0 17,2 4 2 8 5 WSW 1017,6 52 0 0,0
20.09.2018 19:00:00 21,2 14,0 18,3 22,7 21,1 17,2 3 2 19 10 SE 1016,2 60 37 0,0
20.09.2018 18:00:00 23,9 12,9 23,1 24,5 21,0 17,2 9 5 24 13 NE 1015,7 64 60 0,0
20.09.2018 17:00:00 25,0 13,1 28,0 26,2 20,6 17,2 11 6 27 15 NE 1015,5 75 60 0,0
20.09.2018 16:00:00 25,4 13,3 28,5 26,8 19,8 17,2 11 6 24 13 NE 1015,7 73 60 0,0
20.09.2018 15:00:00 25,7 12,0 30,0 26,5 18,9 17,2 9 5 18 10 NE 1016,2 66 60 0,0
20.09.2018 14:00:00 26,2 7,7 29,9 25,3 17,8 17,2 4 2 9 5 S 1016,9 46 60 0,0
20.09.2018 13:00:00 24,9 11,2 27,6 23,1 16,8 17,2 4 2 9 5 SSE 1017,9 67 60 0,0
20.09.2018 12:00:00 22,5 10,3 26,0 20,3 16,0 17,2 3 1 9 5 SSE 1019,5 57 60 0,0
20.09.2018 11:00:00 21,4 10,6 20,2 17,1 15,6 17,2 4 2 8 4 SSE 1020,6 70 60 0,0
20.09.2018 10:00:00 17,9 12,3 15,5 13,6 15,6 17,2 3 2 7 4 SSE 1021,8 58 60 0,0
20.09.2018 09:00:00 13,6 12,7 11,7 12,8 15,8 17,2 3 2 7 4 SSE 1023,2 36 60 0,0
20.09.2018 08:00:00 9,5 9,4 8,7 12,6 16,1 17,2 2 1 6 4 W 1024,5 25 26 0,0
20.09.2018 07:00:00 8,9 8,7 8,3 12,8 16,4 17,2 2 1 5 3 W 1024,5 17 0 0,0
20.09.2018 06:00:00 9,3 9,1 8,6 13,3 16,8 17,3 3 2 7 4 WSW 1024,3 17 0 0,0
20.09.2018 05:00:00 9,6 9,3 8,7 13,7 17,2 17,3 0 0 5 3 N 1024,2 26 0 0,0
20.09.2018 04:00:00 10,1 9,9 9,3 14,2 17,5 17,3 0 0 4 2 N 1024,0 22 0 0,0
20.09.2018 03:00:00 10,4 10,1 9,9 14,7 17,9 17,3 3 1 5 3 WSW 1023,9 17 0 0,0
20.09.2018 02:00:00 10,9 10,6 10,4 15,3 18,3 17,3 2 1 5 3 W 1024,1 21 0 0,0
20.09.2018 01:00:00 11,6 11,2 10,8 15,9 18,8 17,3 2 1 8 5 W 1024,1 22 0 0,0
20.09.2018 00:00:00 11,9 11,5 11,4 16,6 19,2 17,3 0 0 8 4 N 1024,1 18 0 0,0
19.09.2018 23:00:00 12,5 12,2 11,5 17,5 19,7 17,3 3 2 9 5 SW 1023,9 24 0 0,0
19.09.2018 22:00:00 13,2 12,4 12,4 18,4 20,2 17,3 2 1 7 4 WSW 1023,4 31 0 0,0
19.09.2018 21:00:00 14,4 13,4 13,6 19,6 20,6 17,3 2 1 6 3 WSW 1022,7 37 0 0,0
19.09.2018 20:00:00 16,0 14,2 14,9 21,1 21,0 17,3 4 2 8 4 SW 1021,6 57 0 0,0
19.09.2018 19:00:00 19,8 15,0 18,2 23,1 21,1 17,3 3 1 11 6 W 1019,8 54 35 0,0
19.09.2018 18:00:00 23,0 13,3 22,1 25,0 20,9 17,3 6 3 19 10 ESE 1018,6 73 60 0,0
19.09.2018 17:00:00 24,1 12,8 27,9 26,4 20,4 17,3 8 5 21 12 E 1018,3 63 60 0,0
19.09.2018 16:00:00 24,4 12,3 28,9 26,5 19,7 17,3 10 5 21 12 NNE 1018,4 61 57 0,0
19.09.2018 15:00:00 23,9 12,0 27,7 26,3 18,8 17,3 9 5 17 9 NNE 1018,7 75 59 0,0
19.09.2018 14:00:00 24,1 12,2 27,5 24,1 17,9 17,3 7 4 11 6 ESE 1019,0 66 31 0,0
19.09.2018 13:00:00 24,2 14,3 27,4 23,7 16,9 17,3 6 3 11 6 SSE 1019,2 43 60 0,0
19.09.2018 12:00:00 22,1 14,1 24,4 20,8 16,0 17,3 5 3 9 5 S 1020,3 67 60 0,0
19.09.2018 11:00:00 18,7 12,3 19,5 17,8 15,5 17,3 2 1 7 4 WSW 1021,6 65 60 0,0
19.09.2018 10:00:00 16,3 12,6 15,5 14,8 15,3 17,3 2 1 8 4 W 1022,4 49 60 0,0
19.09.2018 09:00:00 14,0 13,6 13,7 13,7 15,3 17,3 0 0 8 4 N 1023,0 25 28 0,0
19.09.2018 08:00:00 11,4 11,4 11,5 12,8 15,5 17,3 4 2 8 4 WSW 1023,4 26 15 0,0
19.09.2018 07:00:00 10,4 10,3 9,3 12,9 15,7 17,4 0 0 6 4 N 1023,3 11 0 0,0
19.09.2018 06:00:00 10,4 10,3 9,9 13,0 16,0 17,4 4 2 6 4 WSW 1022,9 17 0 0,0
19.09.2018 05:00:00 10,5 10,4 9,7 13,1 16,2 17,4 2 1 11 6 S 1022,8 22 0 0,0
19.09.2018 04:00:00 10,2 10,2 9,0 13,4 16,5 17,4 2 1 8 4 S 1023,1 19 0 0,0
19.09.2018 03:00:00 10,3 10,2 9,2 13,7 16,9 17,4 2 1 8 4 S 1023,1 10 0 0,0
19.09.2018 02:00:00 10,7 10,5 9,9 14,2 17,2 17,4 3 2 6 4 W 1022,9 9 0 0,0
19.09.2018 01:00:00 11,0 10,9 10,0 14,8 17,5 17,4 2 1 5 3 W 1022,6 2,1 0 0,0
19.09.2018 00:00:00 11,6 11,3 11,1 15,3 17,9 17,4 4 2 8 4 SW 1022,4 3,9 0 0,0
18.09.2018 23:00:00 12,8 12,5 11,4 16,0 18,2 17,3 2 1 10 6 WNW 1021,9 24 0 0,0
18.09.2018 22:00:00 13,2 12,9 12,6 16,6 18,5 17,3 6 3 10 5 SW 1021,8 13 0 0,0
18.09.2018 21:00:00 14,4 14,2 13,8 17,4 18,8 17,3 4 2 10 6 WSW 1021,2 22 0 0,1
18.09.2018 20:00:00 14,5 14,1 14,4 17,8 19,0 17,3 7 4 11 6 S 1020,9 22 0 1,7
18.09.2018 19:00:00 15,0 14,6 14,9 18,2 19,4 17,3 3 2 18 10 WSW 1020,9 7 0 2,3
18.09.2018 18:00:00 15,2 14,8 15,0 18,7 19,8 17,3 8 4 29 16 WSW 1020,5 9 0 15,5
18.09.2018 17:00:00 18,9 17,4 18,0 21,4 19,3 17,3 9 5 16 8 SW 1017,0 6 0 0,4
18.09.2018 16:00:00 22,7 15,8 22,3 22,2 19,0 17,3 2 1 9 5 NNE 1015,5 65 0 0,0
18.09.2018 15:00:00 23,8 14,5 24,2 22,7 18,4 17,3 3 2 9 5 W 1015,6 60 7 0,0
18.09.2018 14:00:00 24,0 13,3 25,3 21,8 17,9 17,3 4 2 9 5 E 1015,9 48 8 0,0
18.09.2018 13:00:00 22,2 14,0 23,5 20,1 17,4 17,3 3 2 18 10 WSW 1016,8 50 1 0,0
18.09.2018 12:00:00 22,3 14,4 22,9 19,6 16,8 17,3 4 2 10 5 SSW 1016,9 66 23 0,0
18.09.2018 11:00:00 20,4 14,8 18,1 17,4 16,5 17,3 5 3 8 4 S 1017,8 52 38 0,0
18.09.2018 10:00:00 19,0 15,3 16,6 15,2 16,5 17,3 4 2 8 4 S 1018,3 45 57 0,0
18.09.2018 09:00:00 14,4 13,0 13,3 14,1 16,7 17,3 0 0 3 2 N 1019,7 33 53 0,0
18.09.2018 08:00:00 11,4 11,2 10,5 13,8 17,0 17,3 3 2 6 3 SW 1020,3 12 16 0,0
18.09.2018 07:00:00 10,9 10,7 9,9 14,0 17,3 17,3 3 2 6 3 SW 1020,0 14 0 0,0
18.09.2018 06:00:00 10,9 10,6 9,8 14,4 17,6 17,3 4 2 5 3 SSW 1019,8 8 0 0,0
18.09.2018 05:00:00 11,4 11,1 10,0 14,8 18,0 17,3 4 2 6 3 SW 1019,6 17 0 0,0
18.09.2018 04:00:00 11,6 11,3 11,0 15,2 18,3 17,3 3 2 8 4 WSW 1019,6 12 0 0,0
18.09.2018 03:00:00 11,8 11,5 11,0 15,7 18,7 17,3 5 3 7 4 SW 1019,6 13 0 0,0
18.09.2018 02:00:00 12,4 12,1 10,8 16,3 19,1 17,3 2 1 7 4 WSW 1019,5 23 0 0,0
18.09.2018 01:00:00 13,2 12,8 11,9 16,9 19,5 17,3 2 1 6 3 NW 1019,6 25 0 0,0
18.09.2018 00:00:00 13,3 12,9 12,6 17,5 19,9 17,3 6 3 10 6 S 1019,9 16 0 0,0
17.09.2018 23:00:00 13,8 13,2 12,5 18,3 20,4 17,3 4 2 9 5 SW 1020,1 16 0 0,0
17.09.2018 22:00:00 14,8 13,9 14,0 19,2 20,8 17,3 3 1 7 4 SW 1019,8 24 0 0,0
17.09.2018 21:00:00 15,9 14,6 14,9 20,2 21,2 17,3 4 2 8 4 WSW 1019,3 41 0 0,0
17.09.2018 20:00:00 17,3 15,0 16,3 21,4 21,6 17,3 4 2 10 5 SW 1018,6 43 0 0,0
17.09.2018 19:00:00 21,3 13,9 19,6 23,0 21,8 17,3 6 3 18 10 ENE 1017,1 69 35 0,0
17.09.2018 18:00:00 23,1 13,6 24,0 24,4 21,8 17,3 9 5 29 16 NE 1016,7 72 60 0,0
17.09.2018 17:00:00 22,8 13,7 25,0 25,1 21,6 17,3 10 6 31 17 NNE 1016,9 59 21 0,0
17.09.2018 16:00:00 23,7 13,3 25,4 27,0 21,1 17,3 11 6 32 18 NE 1017,0 54 55 0,0
17.09.2018 15:00:00 24,2 14,7 28,8 26,9 20,3 17,3 10 6 23 12 NE 1017,1 48 60 0,0
17.09.2018 14:00:00 23,5 13,3 28,5 26,0 19,5 17,3 10 5 23 12 NE 1017,9 75 60 0,0
17.09.2018 13:00:00 23,0 11,3 27,0 24,7 18,6 17,3 8 4 18 10 ENE 1018,6 61 60 0,0
17.09.2018 12:00:00 22,1 13,0 25,0 22,4 17,8 17,3 5 3 10 5 S 1019,3 75 60 0,0
17.09.2018 11:00:00 20,2 15,2 19,7 19,8 17,4 17,3 4 2 8 4 S 1020,8 63 60 0,0
17.09.2018 10:00:00 17,5 13,9 17,2 17,0 17,3 17,4 3 1 9 5 WSW 1022,2 47 48 0,0
17.09.2018 09:00:00 15,1 14,4 14,7 16,3 17,4 17,4 3 2 6 4 S 1023,1 10 7 0,0
17.09.2018 08:00:00 14,1 13,9 13,9 16,0 17,5 17,4 2 1 7 4 NW 1023,1 29 0 0,0
17.09.2018 07:00:00 13,9 13,7 13,7 16,0 17,7 17,4 3 1 8 4 W 1022,7 16 0 0,0
17.09.2018 06:00:00 13,8 13,6 13,2 16,3 17,9 17,4 3 2 5 3 WSW 1022,6 12 0 0,0
17.09.2018 05:00:00 14,6 14,4 14,0 16,6 18,1 17,4 3 2 10 5 WSW 1022,3 17 0 0,8
17.09.2018 04:00:00 14,7 14,3 14,5 16,9 18,3 17,4 5 3 8 4 S 1022,3 24 0 0,2

tt = Température de l'air
td = dewpoint
tt 5cm = Température de l'air 5cm
tt -5cm = Température de l'air -5cm
tt -20cm = Température de l'air -20cm
tt -100cm = Température de l'air -100cm
ff = Vitesse du vent
fx = gusts
dd = Direction du vent
ppp = reduced air pressure
vv = visibility
sd = Ensoleillement
rr = Quantités de précipitations

stations d'obs. à proximité